CST,Max TemperatureF,Mean TemperatureF,Min TemperatureF,Max Dew PointF,MeanDew PointF,Min DewpointF,Max Humidity, Mean Humidity, Min Humidity, Max Sea Level PressureIn, Mean Sea Level PressureIn, Min Sea Level PressureIn, Max VisibilityMiles, Mean VisibilityMiles, Min VisibilityMiles, Max Wind SpeedMPH, Mean Wind SpeedMPH, Max Gust SpeedMPH,PrecipitationIn, CloudCover, Events, WindDirDegrees
2013-2-1,32,20,9,13,3,-2,64,50,34,30.50,30.37,30.19,10,10,10,13,8,,0.00,3,,206
2013-2-2,39,34,30,29,21,12,79,57,44,30.17,30.12,30.02,10,10,10,15,5,,0.00,5,,288
2013-2-3,43,38,32,30,19,10,73,51,31,30.24,30.10,29.94,10,10,10,21,10,38,0.00,0,,295
2013-2-4,55,42,28,31,26,22,78,57,36,29.97,29.86,29.78,10,10,7,20,7,22,0.00,2,,330
2013-2-5,57,40,23,31,27,19,88,64,36,30.12,29.98,29.92,10,8,4,14,3,22,0.00,0,,288
2013-2-6,61,43,25,30,26,22,89,57,25,30.19,30.08,29.98,10,10,6,14,6,,0.00,1,,125
2013-2-7,50,44,37,47,38,28,93,75,48,30.12,29.95,29.86,10,8,3,14,5,22,0.21,8,Rain,354
2013-2-8,37,35,33,31,28,26,81,75,70,30.37,30.28,30.13,10,9,5,13,8,21,0.00,8,,9
2013-2-9,46,39,32,34,28,26,82,67,46,30.32,30.16,29.92,10,10,7,16,11,,0.06,6,Rain,131
2013-2-10,64,52,39,49,37,24,87,65,24,29.90,29.67,29.50,10,9,5,29,14,46,0.24,6,Rain-Thunderstorm,177
2013-2-11,50,40,30,25,24,22,76,52,33,30.14,30.05,29.89,10,10,10,20,13,34,0.00,0,,273
2013-2-12,43,34,25,30,25,21,88,69,47,30.16,30.07,29.96,10,10,10,8,2,,0.00,2,,356
2013-2-13,51,43,35,32,29,26,76,60,39,29.94,29.87,29.82,10,10,9,15,4,23,0.00,1,,252
2013-2-14,54,45,36,32,29,26,73,55,38,30.09,29.95,29.82,10,10,10,17,4,22,0.00,1,,305
2013-2-15,39,33,26,26,15,8,70,49,28,30.32,30.25,30.11,10,10,5,15,8,21,0.00,3,Snow,317
2013-2-16,37,28,18,19,13,10,77,54,32,30.32,30.23,30.15,10,10,10,9,3,,0.00,3,,286
2013-2-17,57,44,30,29,22,17,64,43,28,30.14,29.99,29.81,10,10,10,17,8,21,0.00,2,,122
2013-2-18,57,45,30,48,36,18,87,67,50,30.00,29.70,29.50,10,8,1,31,13,39,0.27,6,Rain-Thunderstorm,218
2013-2-19,34,29,24,18,12,7,61,51,35,30.34,30.19,30.01,10,10,10,22,16,33,0.00,0,,293
2013-2-20,28,24,19,12,9,5,58,51,45,30.42,30.32,30.26,10,10,10,12,5,,0.00,3,,52
2013-2-21,30,27,24,28,21,12,93,79,55,30.26,29.98,29.80,10,3,0,20,13,32,0.00,8,Fog-Snow-Thunderstorm,93
2013-2-22,35,28,21,30,24,15,93,77,56,30.08,29.92,29.79,10,8,2,18,7,22,0.00,6,,250
2013-2-23,36,24,12,19,14,8,92,71,46,30.08,30.04,29.99,10,7,1,6,1,,0.48,0,,322
2013-2-24,48,30,12,25,19,9,92,62,34,30.09,30.03,29.96,10,8,3,12,3,,0.51,0,,111
2013-2-25,46,38,30,32,27,23,89,69,40,30.01,29.82,29.57,10,6,1,18,9,30,0.43,5,Rain-Snow,75
2013-2-26,36,34,33,32,31,28,93,84,75,29.76,29.53,29.36,10,5,1,16,10,29,1.21,8,Rain-Snow-Thunderstorm,338
2013-2-27,34,32,30,30,27,25,89,80,73,29.96,29.86,29.75,10,3,1,22,13,31,0.13,8,Snow,285
2013-2-28,34,32,30,27,25,23,80,73,70,30.16,30.09,29.96,10,8,2,14,9,21,0.00,8,Snow,297